Location: Byszew
(52.1813°N, 19.2693°E)
Time: 23:12:28
(UTC+00:00)

Cosmos 2278 Rocket - Visible Passes

Search period start: 24 June 2021 00:00
Search period end: 04 July 2021 00:00
Orbit: 841 x 845 km, 71.0° (Epoch: 24 June)

Date Brightness Start Highest point End Pass type
(mag) Time Alt. Az. Time Alt. Az. Time Alt. Az.
24 Jun 2.4 20:12:29 10° NNW 20:18:10 74° WSW 20:23:48 10° SSE visible
24 Jun 4.4 21:58:23 10° WNW 22:01:17 14° W 22:04:08 10° SW visible
25 Jun 2.4 19:57:54 10° NNW 20:03:36 76° WSW 20:09:15 10° SSE visible
25 Jun 4.4 21:43:41 10° WNW 21:46:44 15° W 21:49:46 10° SW visible
26 Jun 4.4 21:28:59 10° WNW 21:32:11 15° W 21:35:22 10° SW visible
27 Jun 4.4 21:14:17 10° WNW 21:17:38 16° W 21:20:58 10° SW visible
28 Jun 4.4 20:59:37 10° WNW 21:03:05 17° W 21:06:34 10° SW visible
29 Jun 4.4 20:44:56 10° WNW 20:48:32 17° W 20:52:08 10° SW visible
30 Jun 4.4 20:30:16 10° WNW 20:33:59 18° W 20:37:43 10° SW visible
01 Jul 4.4 20:15:36 10° WNW 20:19:26 19° W 20:23:17 10° SW visible
02 Jul 4.4 20:00:56 10° NW 20:04:54 20° W 20:08:49 10° SW visible
03 Jul 4.4 19:46:17 10° NW 19:50:21 20° W 19:54:23 10° SSW visible
